[[{"header":{"parameterUnit":"m.s-1","parameterCategory":1,"la1":30.2992,"la2":30.254,"lo1":-89.0895,"lo2":-89.0443,"dy":0.0025,"dx":0.0025,"nx":19,"ny":19,"refTime":"2026-03-29T21:00:00:Z","depth":0,"parameterNumber":2,"parameterNumberName":"U-component_of_WINDS"},"data":[0,0,0,-7.4857,-7.486,-7.4984,-7.4984,-7.5185,-7.5187,0,0,0,0,0,0,0,0,0,0,0,-7.4847,-7.485,-7.4857,-7.4861,-7.4984,-7.4984,-7.5184,-7.5187,0,0,0,0,0,0,0,0,0,0,0,-7.4846,-7.4849,-7.4852,-7.4861,-7.4984,-7.4984,-7.5184,-7.5075,0,0,0,0,0,0,0,0,0,0,-7.4947,-7.4966,-7.4848,-7.4852,-7.4862,-7.4984,-7.4984,-7.5069,-7.5082,-7.5147,0,-7.5214,0,-7.5204,-7.5203,-7.5204,0,0,0,-7.484,-7.4955,-7.4964,-7.4852,-7.4863,-7.4984,-7.4922,-7.5076,-7.509,-7.5165,-7.5217,-7.5223,-7.5208,-7.5205,-7.5206,-7.5657,-7.566,0,0,-7.4833,-7.4884,-7.4955,-7.4975,-7.4961,-7.4919,-7.4927,-7.5084,-7.5143,-7.5217,-7.5227,-7.5211,-7.5206,-7.5208,-7.5654,-7.5658,0,0,0,-7.4827,-7.488,-7.4884,-7.4968,-7.4987,-7.4923,-7.4932,-7.5136,-7.5133,-7.5229,-7.5213,-7.5208,-7.5211,-7.565,-7.5655,-7.5856,0,0,0,-7.4822,-7.4876,-7.4882,-7.4915,-7.4986,-7.5064,-7.4982,-7.5123,-7.5139,-7.5212,-7.5208,-7.5213,-7.5647,-7.5653,-7.5843,-7.5942,0,0,0,-7.483,-7.4877,-7.4905,-7.4917,-7.4972,-7.506,-7.5065,-7.5125,-7.5131,-7.5204,-7.5214,-7.5645,-7.5652,-7.5832,-7.5922,-7.6074,0,0,0,-7.4852,-7.5081,-7.4909,-7.5158,-7.4972,-7.5185,-7.5064,-7.522,-7.5307,-7.5209,-7.5647,-7.5655,-7.5828,-7.5911,-7.6062,-7.6209,-7.6276,0,0,-7.5169,-7.5121,-7.5264,-7.5113,-7.537,-7.5162,-7.5447,-7.5478,-7.5438,-7.5586,-7.5596,-7.5847,-7.5921,-7.6071,-7.6637,-7.669,0,0,0,-7.5381,-7.5484,-7.5541,-7.5628,-7.5659,-7.5692,-7.5675,-7.5686,-7.581,-7.5525,-7.5943,-7.5985,-7.6071,-7.6139,-7.6184,-7.6254,-7.5689,-7.5688,-7.5688,-7.5899,-7.5838,-7.6069,-7.6023,-7.6109,-7.609,-7.6152,-7.6164,-7.6076,-7.6176,-7.6218,-7.6569,-7.6651,-7.6684,-7.6758,-7.6293,-7.6294,-7.6295,-7.6295,-7.6355,-7.649,-7.637,-7.6551,-7.6484,-7.6635,-7.6626,-7.6559,-7.6688,-7.6532,-7.6604,-7.6436,-7.6745,-7.6806,-7.631,-7.6307,-7.6305,-7.6304,-7.6303,-7.6686,-7.6739,-7.6752,-7.6871,-7.697,-7.6915,-7.7046,-7.698,-7.6919,-7.6992,-7.7028,-7.7025,-7.7011,-7.7015,-7.7016,-7.7017,-7.7018,-7.7019,-7.702,-7.7022,-7.703,-7.7148,-7.7203,-7.725,-7.7304,-7.7288,-7.7332,-7.7364,-7.7306,-7.7306,-7.7207,-7.6788,-7.6682,-7.7038,-7.7035,-7.7033,-7.7031,-7.703,-7.7503,-7.7384,-7.7568,-7.7616,-7.7673,-7.7776,-7.7692,-7.7788,-7.7815,-7.7882,-7.7769,-7.747,-7.7415,-7.7379,-7.7291,-7.7782,-7.7782,-7.7782,-7.7783,-7.7779,-7.7747,-7.7919,-7.8,-7.8072,-7.8016,-7.8224,-7.8215,-7.8187,-7.82,-7.812,-7.7999,-7.7965,-7.793,-7.7881,-7.7798,-7.8408,-7.8408,-7.8409,-7.807,-7.8042,-7.8232,-7.8204,-7.8245,-7.8281,-7.8475,-7.8571,-7.8515,-7.8433,-7.8208,-7.8182,-7.7985,-7.7925,-7.7834,-7.776,-7.7606,0,0]},{"header":{"parameterUnit":"m.s-1","parameterCategory":1,"la1":30.2992,"la2":30.254,"lo1":-89.0895,"lo2":-89.0443,"dy":0.0025,"dx":0.0025,"nx":19,"ny":19,"refTime":"2026-03-29T21:00:00:Z","depth":0,"parameterNumber":3,"parameterNumberName":"V-component_of_WINDS"},"data":[0,0,0,1.3803,1.3803,1.3769,1.3769,1.3726,1.3726,0,0,0,0,0,0,0,0,0,0,0,1.3814,1.3814,1.3804,1.3803,1.3769,1.3769,1.3726,1.3726,0,0,0,0,0,0,0,0,0,0,0,1.3815,1.3814,1.3814,1.3803,1.3769,1.3769,1.3726,1.3751,0,0,0,0,0,0,0,0,0,0,1.3784,1.3795,1.3814,1.3814,1.3802,1.3769,1.3769,1.3753,1.375,1.3742,0,1.3736,0,1.3731,1.3723,1.3723,0,0,0,1.3801,1.3798,1.3788,1.3814,1.3802,1.3769,1.3784,1.3751,1.3748,1.3738,1.3736,1.3734,1.373,1.3723,1.3723,1.3686,1.3686,0,0,1.3803,1.3808,1.379,1.3786,1.3792,1.3785,1.3783,1.3749,1.3746,1.3735,1.3733,1.3729,1.3723,1.3722,1.3686,1.3686,0,0,0,1.3809,1.381,1.3801,1.3788,1.3782,1.3784,1.3782,1.3747,1.3744,1.3732,1.3729,1.3722,1.3722,1.3686,1.3686,1.3687,0,0,0,1.3811,1.3814,1.3802,1.3805,1.3783,1.3764,1.3781,1.3746,1.3742,1.3729,1.3722,1.3721,1.3687,1.3686,1.3687,1.3686,0,0,0,1.3816,1.3814,1.381,1.3805,1.3791,1.3765,1.376,1.3745,1.374,1.3723,1.3721,1.3687,1.3686,1.3688,1.3686,1.3679,0,0,0,1.3823,1.3809,1.381,1.3793,1.3791,1.3766,1.376,1.374,1.3725,1.3722,1.3687,1.3686,1.3688,1.3686,1.3679,1.3673,1.3671,0,0,1.3808,1.3807,1.3797,1.3797,1.3773,1.3771,1.3747,1.3727,1.372,1.3698,1.3697,1.3687,1.3686,1.3679,1.366,1.3659,0,0,0,1.3794,1.3787,1.3779,1.3767,1.3754,1.3742,1.3726,1.3719,1.3701,1.371,1.3682,1.3682,1.3677,1.3674,1.3673,1.3669,1.3685,1.3685,1.3685,1.3779,1.3773,1.3756,1.3746,1.3734,1.372,1.3709,1.3697,1.3692,1.3686,1.3679,1.3669,1.3666,1.3665,1.366,1.3676,1.3676,1.3676,1.3676,1.3756,1.3745,1.3742,1.3725,1.3718,1.3703,1.3689,1.3687,1.3671,1.3673,1.3668,1.3671,1.3663,1.3659,1.3676,1.3676,1.3676,1.3676,1.3676,1.3745,1.3739,1.3733,1.3716,1.3704,1.3694,1.3681,1.3675,1.3669,1.3664,1.3657,1.3657,1.3656,1.3662,1.3662,1.3662,1.3662,1.3662,1.3662,1.3735,1.3729,1.3719,1.3706,1.3698,1.3688,1.3675,1.3667,1.3657,1.3654,1.3654,1.365,1.3664,1.3668,1.3661,1.3661,1.3661,1.3661,1.3661,1.3713,1.3718,1.3703,1.3696,1.3681,1.367,1.3664,1.365,1.3642,1.3636,1.3634,1.3646,1.3644,1.3645,1.3648,1.3636,1.3636,1.3636,1.3636,1.3704,1.3703,1.3687,1.3677,1.3666,1.366,1.3643,1.3634,1.3625,1.362,1.3621,1.3625,1.3626,1.3623,1.3625,1.3627,1.361,1.361,1.361,1.369,1.3689,1.3675,1.3669,1.3658,1.3649,1.3633,1.362,1.3611,1.3609,1.3617,1.3618,1.3624,1.3626,1.3622,1.3624,1.3629,0,0]}]]